K0FJ-1 Weather Reports


time (UTC)temp
F
wind
direction
speed
knots
gust
knots
rain 1hr
in
rain 24hr
in
rain mn
in
humidity
%
barometer
mb
20260507155503 64 252 4.3 11.3 0.00 0.01 0.00 46 1014.2
20260507155003 63 246 4.3 13.0 0.00 0.02 0.00 45 1014.3
20260507154504 63 258 5.2 13.0 0.00 0.02 0.00 48 1014.3
20260507154005 62 258 5.2 11.3 0.00 0.02 0.00 49 1014.3
20260507153504 62 248 5.2 13.0 0.00 0.02 0.00 49 1014.2
20260507153003 61 266 5.2 13.9 0.00 0.02 0.00 48 1014.3
20260507152503 60 271 6.1 13.9 0.00 0.02 0.00 48 1014.4
20260507152003 60 256 4.3 12.2 0.00 0.02 0.00 49 1014.4
20260507151504 59 250 4.3 10.4 0.00 0.02 0.00 56 1014.3
20260507151003 59 253 5.2 13.0 0.00 0.02 0.00 54 1014.4
20260507150503 58 249 5.2 13.0 0.00 0.02 0.00 53 1014.3
20260507150003 57 244 4.3 12.2 0.00 0.02 0.00 53 1014.4
20260507145503 57 250 5.2 13.0 0.00 0.02 0.00 57 1014.4
20260507145003 56 249 5.2 13.0 0.00 0.02 0.00 57 1014.4
20260507144503 55 239 4.3 12.2 0.00 0.02 0.00 61 1014.4
20260507144005 54 235 4.3 12.2 0.00 0.02 0.00 63 1014.4
20260507143503 54 241 4.3 10.4 0.00 0.02 0.00 66 1014.4
20260507143003 52 251 3.5 10.4 0.00 0.02 0.00 66 1014.4
20260507142503 52 252 3.5 8.7 0.00 0.02 0.00 68 1014.4
20260507142003 51 247 3.5 11.3 0.00 0.02 0.00 69 1014.4
20260507141503 50 244 4.3 11.3 0.00 0.02 0.00 69 1014.5
20260507141003 50 249 4.3 12.2 0.00 0.02 0.00 70 1014.5
20260507140503 49 242 4.3 12.2 0.00 0.02 0.00 72 1014.6
20260507140006 48 233 4.3 11.3 0.00 0.02 0.00 73 1014.6
20260507135503 48 243 4.3 11.3 0.00 0.03 0.00 75 1014.6
20260507135003 47 247 3.5 9.6 0.00 0.03 0.00 76 1014.6
20260507134503 46 248 3.5 10.4 0.00 0.03 0.00 78 1014.6
20260507134003 46 246 4.3 10.4 0.00 0.03 0.00 78 1014.6
20260507133503 45 246 4.3 8.7 0.00 0.04 0.00 79 1014.6
20260507133003 44 251 3.5 9.6 0.00 0.04 0.00 79 1014.6
20260507132503 44 250 3.5 11.3 0.00 0.04 0.00 80 1014.6
20260507132003 43 247 3.5 11.3 0.00 0.04 0.00 80 1014.6
20260507131503 43 243 3.5 10.4 0.00 0.04 0.00 81 1014.5
20260507131003 42 243 3.5 10.4 0.00 0.05 0.00 81 1014.6
20260507130503 42 238 3.5 8.7 0.00 0.05 0.00 82 1014.6
20260507130003 41 235 3.5 7.8 0.00 0.05 0.00 82 1014.6
20260507125503 41 242 3.5 9.6 0.00 0.05 0.00 82 1014.5
20260507125003 41 235 3.5 9.6 0.00 0.05 0.00 83 1014.5
20260507124505 40 230 3.5 9.6 0.00 0.05 0.00 84 1014.3
20260507124003 40 228 3.5 9.6 0.00 0.06 0.00 85 1014.3
20260507123503 39 227 3.5 8.7 0.00 0.06 0.00 85 1014.4
20260507123003 39 225 3.5 8.7 0.00 0.06 0.00 85 1014.5
20260507122503 38 224 3.5 9.6 0.00 0.07 0.00 85 1014.4
20260507122004 38 224 3.5 9.6 0.00 0.07 0.00 85 1014.5
20260507121503 38 228 2.6 7.8 0.00 0.07 0.00 85 1014.6
20260507121003 38 235 2.6 7.8 0.00 0.07 0.00 86 1014.7
20260507120503 38 232 2.6 7.8 0.00 0.08 0.00 86 1014.7
20260507120004 38 225 3.5 7.8 0.00 0.08 0.00 86 1014.6
20260507115503 38 222 3.5 8.7 0.00 0.08 0.00 86 1014.6
20260507115003 38 223 4.3 8.7 0.00 0.09 0.00 86 1014.7
20260507114503 38 221 4.3 7.8 0.00 0.09 0.00 86 1014.8
20260507114004 38 221 4.3 7.8 0.00 0.09 0.00 86 1014.8
20260507113503 38 217 3.5 7.8 0.00 0.10 0.00 86 1014.9
20260507113004 38 214 3.5 7.0 0.00 0.10 0.00 86 1015.0
20260507112503 38 216 3.5 7.0 0.00 0.10 0.00 86 1014.9
20260507112003 38 220 3.5 9.6 0.00 0.11 0.00 86 1014.9
20260507111504 38 221 3.5 9.6 0.00 0.11 0.00 87 1014.9
20260507111003 38 222 2.6 9.6 0.00 0.11 0.00 87 1014.9
20260507110503 38 227 2.6 9.6 0.00 0.12 0.00 87 1015.0
20260507110003 38 228 2.6 7.8 0.00 0.12 0.00 87 1015.0
20260507105503 38 235 2.6 6.1 0.00 0.12 0.00 88 1015.1
20260507105003 38 233 2.6 9.6 0.00 0.13 0.00 88 1015.2
20260507104504 38 228 3.5 9.6 0.00 0.14 0.00 88 1015.4
20260507104003 37 229 3.5 8.7 0.00 0.14 0.00 88 1015.4
20260507103503 37 227 3.5 7.8 0.00 0.15 0.00 88 1015.5
20260507103003 37 226 2.6 7.8 0.00 0.15 0.00 88 1015.4
20260507102503 37 229 2.6 6.1 0.00 0.15 0.00 88 1015.4
20260507102003 37 227 2.6 8.7 0.00 0.16 0.00 88 1015.6
20260507101506 37 225 3.5 8.7 0.00 0.16 0.00 88 1015.7
20260507101005 37 226 3.5 9.6 0.00 0.16 0.00 88 1015.8
20260507100503 37 227 3.5 9.6 0.00 0.16 0.00 87 1015.8
20260507100004 38 227 3.5 9.6 0.00 0.16 0.00 87 1015.8
20260507095503 38 226 4.3 10.4 0.00 0.16 0.00 87 1015.8
20260507095003 38 223 4.3 10.4 0.00 0.17 0.00 87 1015.8
20260507094503 38 219 3.5 8.7 0.00 0.17 0.00 87 1015.9
20260507094003 38 223 3.5 8.7 0.00 0.17 0.00 87 1015.9
20260507093503 38 231 3.5 7.8 0.00 0.17 0.00 86 1015.9
20260507093003 38 227 4.3 9.6 0.00 0.18 0.00 87 1016.0
20260507092503 38 223 4.3 10.4 0.00 0.18 0.00 87 1016.1
20260507092003 38 222 4.3 10.4 0.00 0.18 0.00 88 1016.2
20260507091503 38 220 4.3 8.7 0.00 0.18 0.00 88 1016.3
20260507091003 38 222 4.3 8.7 0.00 0.19 0.00 88 1016.2
20260507090503 37 223 3.5 7.8 0.00 0.19 0.00 89 1016.4
20260507090004 37 225 3.5 7.8 0.00 0.19 0.00 89 1016.4
20260507085503 37 225 3.5 7.8 0.00 0.19 0.00 89 1016.5
20260507085005 37 223 3.5 7.8 0.00 0.19 0.00 89 1016.5
20260507084503 37 221 3.5 7.8 0.00 0.19 0.00 88 1016.6
20260507084003 37 222 3.5 7.8 0.00 0.19 0.00 88 1016.7
20260507083503 37 227 3.5 7.8 0.00 0.19 0.00 88 1016.8
20260507083004 37 229 3.5 7.8 0.00 0.19 0.00 88 1016.9
20260507082503 37 225 3.5 11.3 0.00 0.19 0.00 88 1017.0
20260507082003 37 223 3.5 11.3 0.00 0.19 0.00 89 1017.0
20260507081503 37 222 3.5 8.7 0.00 0.19 0.00 89 1017.1
20260507081003 37 222 3.5 8.7 0.00 0.19 0.00 89 1017.2
20260507080505 37 223 3.5 7.0 0.00 0.20 0.00 88 1017.2
20260507080003 37 223 3.5 7.0 0.00 0.20 0.00 88 1017.3
20260507075503 37 223 3.5 7.8 0.00 0.20 0.00 88 1017.3
20260507075003 37 222 3.5 7.8 0.00 0.20 0.00 88 1017.4
20260507074503 37 220 3.5 7.8 0.00 0.20 0.00 88 1017.5
20260507074003 38 216 3.5 7.0 0.00 0.20 0.00 88 1017.5
20260507073503 38 218 3.5 7.0 0.00 0.20 0.00 88 1017.6
20260507073003 38 220 3.5 8.7 0.00 0.20 0.00 89 1017.8
20260507072503 38 221 3.5 8.7 0.00 0.20 0.00 89 1017.9
20260507072003 38 221 3.5 8.7 0.00 0.20 0.00 89 1018.0
20260507071504 38 218 3.5 7.8 0.00 0.21 0.00 90 1018.0
20260507071003 37 219 3.5 7.8 0.00 0.21 0.00 90 1018.1
20260507070503 37 221 2.6 7.0 0.00 0.21 0.00 90 1018.2
20260507070007 37 223 2.6 7.0 0.00 0.21 0.00 89 1018.2
20260507065503 37 222 3.5 7.0 0.00 0.21 0.00 89 1018.3
20260507065003 38 220 3.5 7.0 0.00 0.21 0.00 89 1018.3
20260507064503 38 219 3.5 7.0 0.00 0.22 0.00 89 1018.4
20260507064003 38 222 3.5 7.0 0.00 0.22 0.00 89 1018.4
20260507063504 38 224 3.5 6.1 0.00 0.22 0.00 89 1018.5
20260507063003 38 223 2.6 6.1 0.00 0.22 0.00 89 1018.5
20260507062503 38 223 2.6 7.0 0.00 0.22 0.00 90 1018.7
20260507062003 38 222 2.6 7.8 0.00 0.23 0.00 90 1018.7
20260507061503 38 223 3.5 7.8 0.00 0.23 0.00 90 1018.8
20260507061003 38 227 3.5 7.8 0.00 0.23 0.00 90 1018.8
20260507060503 38 225 3.5 7.8 0.00 0.23 0.00 90 1018.9
20260507060003 38 217 2.6 6.1 0.00 0.23 0.00 90 1018.8
20260507055503 38 217 2.6 6.1 0.00 0.24 0.00 89 1018.8
20260507055003 38 220 2.6 6.1 0.00 0.24 0.00 89 1018.9
20260507054503 38 219 2.6 7.0 0.00 0.25 0.00 89 1018.9
20260507054003 39 221 2.6 7.0 0.00 0.25 0.00 89 1018.9
20260507053503 39 218 3.5 7.8 0.00 0.26 0.00 89 1018.9
20260507053004 39 215 3.5 7.8 0.00 0.26 0.00 89 1018.9
20260507052503 39 210 3.5 8.7 0.00 0.26 0.00 89 1018.8
20260507052003 39 211 4.3 8.7 0.00 0.27 0.00 89 1018.8
20260507051503 39 217 4.3 7.0 0.00 0.27 0.00 89 1018.9
20260507051004 39 214 4.3 7.0 0.00 0.27 0.00 89 1018.9
20260507050503 39 213 3.5 7.0 0.00 0.27 0.00 89 1019.0
20260507050004 39 216 3.5 6.1 0.00 0.28 0.00 89 1019.1
20260507045503 39 218 3.5 7.0 0.00 0.28 0.28 88 1019.1
20260507045003 39 217 3.5 7.0 0.00 0.29 0.28 88 1019.2
20260507044503 40 211 3.5 7.0 0.00 0.29 0.28 88 1019.2
20260507044003 40 206 3.5 7.0 0.00 0.29 0.28 88 1019.3
20260507043503 40 205 3.5 7.0 0.00 0.30 0.28 88 1019.4
20260507043003 40 204 4.3 7.0 0.00 0.30 0.28 88 1019.4
20260507042503 40 208 3.5 7.8 0.00 0.30 0.28 88 1019.4
20260507042003 40 213 3.5 7.8 0.00 0.30 0.28 88 1019.4
20260507041503 40 213 2.6 6.1 0.00 0.31 0.28 88 1019.4
20260507041003 40 214 2.6 4.3 0.00 0.31 0.28 88 1019.5
20260507040505 40 215 2.6 4.3 0.00 0.32 0.28 88 1019.4
20260507040003 40 216 2.6 4.3 0.00 0.32 0.28 88 1019.4
20260507035503 40 221 2.6 5.2 0.00 0.32 0.28 87 1019.5
20260507035003 40 220 2.6 6.1 0.00 0.33 0.28 87 1019.5
20260507034503 41 215 2.6 6.1 0.00 0.33 0.28 87 1019.5
20260507034003 41 212 2.6 6.1 0.00 0.33 0.28 87 1019.5
20260507033503 41 214 2.6 6.1 0.00 0.33 0.28 87 1019.4
20260507033003 41 214 2.6 4.3 0.00 0.34 0.28 86 1019.5
20260507032503 41 214 1.7 5.2 0.00 0.35 0.28 86 1019.5
20260507032005 41 217 1.7 5.2 0.00 0.36 0.28 86 1019.5
20260507031503 42 216 1.7 4.3 0.00 0.37 0.28 85 1019.5
20260507031003 42 216 2.6 5.2 0.00 0.38 0.28 85 1019.5
20260507030503 42 214 3.5 5.2 0.00 0.38 0.28 86 1019.5
20260507030003 42 210 3.5 5.2 0.00 0.38 0.28 86 1019.5
20260507025503 42 211 2.6 5.2 0.00 0.39 0.28 86 1019.5
20260507025003 42 213 1.7 4.3 0.00 0.39 0.28 85 1019.5
20260507024503 42 212 1.7 4.3 0.00 0.39 0.28 84 1019.5
20260507024005 42 214 1.7 4.3 0.00 0.40 0.28 84 1019.4
20260507023503 43 218 1.7 3.5 0.00 0.40 0.28 83 1019.4
20260507023003 43 216 1.7 3.5 0.00 0.41 0.28 83 1019.4
20260507022503 44 213 1.7 3.5 0.00 0.41 0.28 83 1019.3
20260507022003 44 213 1.7 4.3 0.00 0.42 0.28 82 1019.4
20260507021503 44 216 1.7 4.3 0.00 0.42 0.28 82 1019.3
20260507021003 45 217 1.7 4.3 0.00 0.42 0.28 82 1019.2
20260507020505 45 215 1.7 4.3 0.00 0.42 0.28 81 1019.3
20260507020003 45 214 1.7 4.3 0.00 0.42 0.28 81 1019.3
20260507015503 45 218 2.6 6.1 0.00 0.43 0.28 81 1019.2
20260507015003 46 220 1.7 6.1 0.00 0.43 0.28 80 1019.2
20260507014503 46 222 1.7 7.0 0.00 0.44 0.28 80 1019.3
20260507014003 46 229 1.7 7.0 0.00 0.44 0.28 79 1019.3
20260507013503 46 240 1.7 6.1 0.00 0.44 0.28 79 1019.4
20260507013004 46 227 1.7 7.0 0.00 0.44 0.28 78 1019.3
20260507012503 47 228 1.7 7.0 0.00 0.44 0.28 78 1019.3
20260507012003 47 241 1.7 6.1 0.00 0.45 0.28 77 1019.3
20260507011505 47 245 1.7 6.1 0.00 0.45 0.28 77 1019.3
20260507011003 47 242 1.7 7.0 0.00 0.45 0.28 77 1019.3
20260507010503 47 238 1.7 7.0 0.00 0.45 0.28 76 1019.3
20260507010003 47 232 2.6 7.0 0.00 0.45 0.28 76 1019.2
20260507005503 47 237 2.6 7.0 0.00 0.46 0.28 75 1019.1
20260507005003 48 243 2.6 9.6 0.00 0.46 0.28 74 1019.1
20260507004503 48 232 3.5 9.6 0.00 0.46 0.28 74 1019.0
20260507004003 48 235 3.5 8.7 0.00 0.46 0.28 75 1019.0
20260507003503 48 243 3.5 9.6 0.00 0.47 0.28 75 1019.1
20260507003003 48 233 3.5 10.4 0.00 0.47 0.28 76 1019.1
20260507002503 47 237 3.5 10.4 0.00 0.47 0.28 76 1019.2
20260507002003 47 248 2.6 7.8 0.00 0.47 0.28 79 1019.2
20260507001503 47 258 2.6 7.0 0.00 0.47 0.28 80 1019.3
20260507001003 47 280 3.5 7.0 0.00 0.47 0.28 81 1019.2
20260507000503 47 290 3.5 7.0 0.00 0.47 0.28 81 1019.3
20260507000003 47 283 2.6 7.0 0.00 0.47 0.28 82 1019.3
20260506235503 47 271 2.6 6.1 0.00 0.47 0.28 81 1019.4
20260506235005 47 275 2.6 7.8 0.00 0.47 0.28 81 1019.4
20260506234503 47 262 3.5 7.8 0.00 0.48 0.28 81 1019.3
20260506234003 48 231 3.5 8.7 0.00 0.48 0.28 79 1019.4
20260506233503 48 239 3.5 8.7 0.00 0.48 0.28 77 1019.3
20260506233004 48 257 3.5 6.1 0.00 0.48 0.28 77 1019.4
20260506232503 48 263 2.6 7.0 0.00 0.48 0.28 77 1019.4
20260506232003 48 258 2.6 7.8 0.00 0.48 0.28 78 1019.4
20260506231503 48 244 2.6 7.8 0.00 0.48 0.28 78 1019.4
20260506231003 48 231 3.5 10.4 0.00 0.48 0.28 78 1019.4
20260506230503 48 229 4.3 10.4 0.00 0.48 0.28 76 1019.3
20260506230003 48 230 3.5 9.6 0.00 0.48 0.28 75 1019.3
20260506225503 48 228 4.3 10.4 0.00 0.48 0.28 74 1019.4
20260506225003 48 227 4.3 10.4 0.00 0.48 0.28 74 1019.3
20260506224505 48 234 3.5 9.6 0.00 0.48 0.28 73 1019.3
20260506224003 48 230 3.5 9.6 0.00 0.48 0.28 74 1019.4
20260506223503 48 220 5.2 11.3 0.00 0.48 0.28 72 1019.4
20260506223003 48 224 4.3 11.3 0.00 0.48 0.28 73 1019.3
20260506222503 48 226 4.3 12.2 0.00 0.48 0.28 75 1019.3
20260506222003 48 229 4.3 12.2 0.00 0.48 0.28 73 1019.2
20260506221504 48 236 3.5 8.7 0.00 0.48 0.28 74 1019.4
20260506221003 49 223 4.3 10.4 0.00 0.48 0.28 73 1019.4
20260506220503 50 225 3.5 10.4 0.00 0.48 0.28 71 1019.3
20260506220005 50 228 2.6 6.1 0.00 0.49 0.28 71 1019.4
20260506215503 50 213 2.6 7.8 0.00 0.49 0.28 72 1019.4
20260506215003 51 223 3.5 7.8 0.00 0.49 0.28 68 1019.5
20260506214503 51 249 2.6 7.0 0.00 0.50 0.28 71 1019.5
20260506214003 51 251 2.6 7.0 0.00 0.50 0.28 68 1019.6
20260506213503 51 224 2.6 7.0 0.00 0.50 0.28 69 1019.5
20260506213004 51 223 2.6 6.1 0.00 0.50 0.28 69 1019.7
20260506212503 51 219 2.6 7.0 0.00 0.50 0.28 70 1019.8
20260506212003 51 226 2.6 7.0 0.00 0.50 0.28 73 1019.7
20260506211503 51 213 2.6 8.7 0.00 0.50 0.28 72 1019.9
20260506211005 50 193 3.5 8.7 0.00 0.50 0.28 72 1019.8
20260506210503 50 220 2.6 7.0 0.00 0.50 0.28 74 1020.0
20260506210004 50 227 3.5 8.7 0.00 0.51 0.28 75 1020.0
20260506205503 50 210 3.5 8.7 0.00 0.51 0.28 74 1020.0
20260506205003 50 214 2.6 6.1 0.00 0.51 0.28 75 1020.1
20260506204503 49 212 2.6 6.1 0.00 0.51 0.28 76 1020.1
20260506204003 49 223 1.7 6.1 0.00 0.51 0.28 78 1020.2
20260506203503 49 219 2.6 6.1 0.00 0.51 0.28 78 1020.1
20260506203003 48 203 1.7 4.3 0.00 0.51 0.28 78 1020.2
20260506202503 48 202 2.6 6.1 0.00 0.51 0.28 81 1020.1
20260506202003 47 217 2.6 6.1 0.00 0.51 0.28 78 1020.2
20260506201503 47 224 1.7 6.1 0.00 0.51 0.28 82 1020.2
20260506201005 46 218 1.7 4.3 0.00 0.51 0.28 83 1020.2
20260506200503 46 260 1.7 3.5 0.00 0.51 0.28 84 1020.2
20260506200003 45 297 1.7 3.5 0.00 0.51 0.28 85 1020.2
20260506195503 45 289 1.7 5.2 0.00 0.51 0.28 83 1020.3
20260506195003 45 288 2.6 5.2 0.00 0.51 0.28 85 1020.4
20260506194503 45 261 2.6 6.1 0.00 0.51 0.28 86 1020.4
20260506194003 45 238 2.6 6.1 0.00 0.51 0.28 86 1020.4
20260506193503 45 227 1.7 4.3 0.00 0.51 0.28 89 1020.5
20260506193004 45 233 1.7 4.3 0.00 0.51 0.28 85 1020.5
20260506192504 45 288 1.7 6.1 0.00 0.51 0.28 87 1020.5
20260506192004 45 291 2.6 6.1 0.00 0.51 0.28 85 1020.5
20260506191503 45 289 1.7 5.2 0.00 0.51 0.28 86 1020.4
20260506191003 44 310 0.9 2.6 0.00 0.51 0.28 83 1020.5
20260506190503 44 304 0.9 3.5 0.00 0.51 0.28 84 1020.5
20260506190004 44 301 1.7 3.5 0.00 0.51 0.28 86 1020.6
20260506185503 44 303 0.9 3.5 0.00 0.51 0.28 85 1020.6
20260506185003 44 321 0.0 1.7 0.00 0.51 0.28 86 1020.7
20260506184503 44 322 0.0 1.7 0.00 0.51 0.28 85 1020.7
20260506184003 44 332 0.0 0.9 0.00 0.52 0.28 87 1020.8
20260506183503 44 0 0.0 0.0 0.01 0.52 0.28 87 1020.8
20260506183005 44 0 0.0 0.0 0.01 0.52 0.28 88 1020.8
20260506182503 44 0 0.0 0.0 0.01 0.52 0.28 88 1020.8
20260506182003 44 0 0.0 0.0 0.01 0.52 0.28 88 1020.8
20260506181503 44 338 0.0 0.9 0.01 0.52 0.28 88 1020.8
20260506181003 43 338 0.0 0.9 0.01 0.52 0.28 88 1021.0
20260506180503 43 338 0.0 0.9 0.01 0.52 0.28 88 1021.0
20260506180004 43 338 0.0 2.6 0.01 0.53 0.28 88 1021.0
20260506175503 43 338 0.0 2.6 0.01 0.53 0.28 86 1021.0
20260506175005 43 294 0.0 0.9 0.01 0.53 0.28 89 1021.0
20260506174503 43 294 0.0 1.7 0.01 0.53 0.28 87 1021.1
20260506174003 43 308 0.9 2.6 0.01 0.53 0.28 88 1021.0
20260506173503 43 318 0.9 2.6 0.00 0.52 0.27 88 1021.1
20260506173003 43 354 0.0 1.7 0.00 0.52 0.27 90 1021.1
20260506172504 43 360 0.0 1.7 0.00 0.52 0.27 88 1021.0
20260506172003 43 0 0.0 0.0 0.00 0.52 0.27 88 1021.0
20260506171504 43 358 0.0 1.7 0.00 0.52 0.27 89 1021.1
20260506171004 43 358 0.0 1.7 0.00 0.52 0.27 88 1021.1
20260506170503 43 355 0.0 1.7 0.00 0.52 0.27 90 1021.0
20260506170004 43 348 0.0 0.9 0.00 0.52 0.27 92 1021.0
20260506165503 43 348 0.0 0.9 0.00 0.52 0.27 92 1021.0
20260506165003 43 342 0.0 1.7 0.01 0.52 0.27 91 1021.0
20260506164503 42 350 0.0 2.6 0.01 0.52 0.27 90 1021.0
20260506164003 42 359 0.0 2.6 0.01 0.52 0.27 90 1021.0
20260506163503 42 5 0.0 1.7 0.01 0.52 0.27 91 1020.9
20260506163003 42 5 0.0 1.7 0.01 0.52 0.27 91 1020.8
20260506162503 42 5 0.0 1.7 0.01 0.52 0.27 92 1020.7
20260506162003 42 72 0.0 2.6 0.01 0.52 0.27 93 1020.7
20260506161503 42 98 0.9 2.6 0.01 0.52 0.27 91 1020.6
20260506161003 42 126 0.0 1.7 0.01 0.52 0.27 92 1020.5
20260506160503 43 0 0.0 0.0 0.01 0.52 0.27 94 1020.5
20260506160003 42 0 0.0 0.0 0.01 0.52 0.27 94 1020.4